Wind_Speed
57 55 53 50 51 54 55 54 54 54 54 50 46 51 57 52 49 54 53 45 40 38 30 22 26 34 36 36 39 38 36 42 48 49 46 42 42 43 41 41 42 42 40 38 38 38 37 37 35 34 33 33 32 30 28 27 25 23 23 25 28 32 33 31 30 29 29 29 29 30 32 33 33 34 34 33 32 30 29 29 29 30 30 30 29 29 28
61 59 57 56 54 54 56 56 55 54 55 57 54 53 57 57 57 58 55 48 45 44 39 29 26 32 35 37 42 44 42 45 48 48 45 42 42 44 44 44 44 43 43 42 41 40 39 38 37 36 35 33 32 32 30 28 26 24 23 23 25 29 32 32 31 31 30 30 30 30 31 32 33 33 34 35 33 32 31 30 30 30 30 30 30 30 29
59 60 59 59 58 57 56 55 54 53 52 57 61 61 61 63 63 60 54 53 53 48 43 37 31 30 32 36 43 46 43 43 46 48 48 47 48 50 51 51 51 48 47 45 43 42 41 40 38 37 35 33 32 32 31 29 27 25 23 22 22 25 30 32 33 32 31 31 30 30 31 31 32 33 34 35 35 34 33 32 31 30 30 30 30 30 30
57 58 59 59 58 58 60 57 54 54 53 55 61 66 69 69 67 62 57 59 58 50 46 47 44 36 32 34 43 48 44 42 44 46 48 50 52 53 52 53 53 51 50 48 45 44 42 41 39 37 36 34 34 34 33 30 28 26 24 22 21 23 27 31 33 33 33 32 31 31 31 31 31 32 33 34 34 34 34 33 32 31 31 30 30 31 31
53 55 57 59 58 59 64 61 55 52 54 57 60 64 69 70 68 66 64 63 60 55 54 59 58 50 39 33 38 46 44 41 41 44 47 51 52 52 50 51 51 50 49 48 47 44 43 42 39 37 35 34 33 33 33 32 30 29 26 24 24 24 25 27 29 31 33 33 32 32 32 31 31 32 32 33 33 33 34 34 34 32 31 31 31 31 30
46 52 55 57 60 62 64 62 56 53 54 56 58 61 66 69 69 70 69 64 59 60 62 63 61 61 55 43 38 43 44 41 42 45 47 50 53 54 52 52 52 51 49 48 47 45 44 43 40 37 36 34 32 33 34 34 33 31 29 27 26 25 24 24 25 27 30 32 33 33 32 32 32 32 31 31 32 33 34 34 34 33 33 32 32 31 31
38 45 50 55 60 61 60 60 57 55 55 55 55 58 64 67 68 72 74 70 66 68 70 62 55 57 59 53 44 42 44 45 45 47 49 51 54 55 53 52 52 52 51 50 48 47 46 43 41 39 37 36 34 34 36 36 35 33 31 30 29 27 26 24 23 24 27 29 31 33 33 32 32 31 31 31 31 32 33 34 34 33 34 34 33 32 32
31 37 43 50 57 58 56 56 57 56 56 56 55 57 60 64 68 71 73 72 69 68 69 65 57 52 52 50 46 44 46 48 46 47 50 53 54 54 53 52 53 53 51 50 49 48 46 44 42 40 38 37 36 35 35 37 36 35 34 33 31 29 28 26 24 24 25 27 28 30 31 32 32 32 31 31 31 32 32 33 34 34 35 35 34 33 33
29 32 34 39 47 53 55 55 57 59 56 54 55 56 57 62 66 66 66 69 68 63 60 60 61 59 54 48 46 48 49 49 46 45 48 51 53 55 56 56 56 55 54 52 52 50 47 45 44 41 39 39 38 36 35 37 38 37 36 35 33 30 28 27 25 24 25 26 25 26 28 30 32 32 32 31 31 32 32 33 33 33 34 34 34 34 33
31 31 32 33 39 50 57 57 58 59 55 51 53 54 54 57 62 63 63 66 69 66 58 54 59 64 62 55 51 50 49 48 47 45 45 48 52 56 58 58 58 58 57 56 54 51 48 46 45 43 41 41 39 38 37 36 37 37 36 35 33 30 29 28 26 25 26 26 25 24 24 27 29 31 32 32 31 32 32 33 33 33 33 34 34 33 33
34 34 34 34 37 46 54 56 57 57 55 52 53 54 55 55 58 64 66 65 67 67 59 53 57 63 65 62 57 52 49 48 47 45 44 46 51 56 59 60 60 60 59 57 54 52 50 47 46 45 44 42 41 40 38 36 36 37 36 35 33 30 29 29 27 26 26 26 26 24 23 24 27 29 31 32 32 33 32 32 33 33 33 33 33 32 32
35 36 34 33 34 41 49 54 55 55 56 55 52 54 57 54 51 58 66 66 65 65 59 54 58 63 65 64 59 53 50 48 47 46 45 45 48 54 59 61 60 60 59 57 54 53 51 49 47 47 47 45 43 41 39 37 36 34 33 33 32 31 31 31 29 27 26 27 27 24 23 25 27 28 29 32 33 33 32 32 32 32 32 32 32 32 31
35 36 35 33 34 37 43 50 54 56 57 58 53 50 53 54 49 50 59 64 65 64 60 56 57 61 63 63 60 55 53 50 48 47 46 46 47 50 55 59 60 60 58 56 54 53 52 50 50 49 49 47 45 43 41 38 34 32 31 33 33 33 33 31 29 27 27 28 27 25 24 26 27 27 28 30 32 32 32 31 31 31 31 31 31 31 30
33 35 35 35 36 37 40 45 52 55 56 58 57 51 49 53 52 47 50 59 64 65 63 60 58 58 60 61 60 58 54 51 49 48 47 46 46 47 51 56 59 59 58 55 53 51 51 50 50 51 51 49 46 45 42 37 34 33 33 34 34 34 33 31 28 27 28 28 27 26 26 27 27 27 28 29 31 32 32 31 29 29 30 30 30 30 29
31 34 36 36 37 37 37 41 47 53 56 58 58 54 50 53 55 49 45 50 60 65 65 63 60 59 59 59 59 59 55 51 49 49 48 46 45 46 48 52 56 57 57 54 53 51 49 49 50 52 52 50 48 46 42 37 35 36 35 35 34 33 32 31 28 28 29 29 28 27 27 26 27 27 27 29 30 30 30 29 29 28 29 29 29 28 28
31 32 34 36 36 35 35 38 43 50 56 57 56 53 51 52 55 53 45 45 53 62 65 64 62 61 60 58 58 58 55 51 49 49 48 46 44 45 47 49 52 54 55 54 53 50 49 48 49 52 53 52 49 46 42 39 40 39 37 36 35 33 32 31 30 30 31 30 29 28 26 26 26 26 27 28 28 28 29 28 27 27 27 27 27 26 26
32 31 31 33 36 36 36 38 41 45 51 54 54 53 52 51 51 51 48 45 47 56 63 64 62 60 60 59 58 57 54 50 48 48 48 45 44 45 46 47 49 51 52 52 51 50 49 48 48 51 53 52 49 47 45 45 45 42 40 39 38 35 34 32 32 32 32 30 29 28 26 24 24 25 25 26 27 27 28 27 26 26 26 26 25 25 25
30 31 32 33 35 36 36 38 39 41 45 50 51 51 53 51 48 48 50 48 45 50 59 63 62 60 59 59 59 57 53 49 47 46 46 45 44 44 44 45 46 48 49 50 49 49 49 49 49 51 51 50 49 49 49 50 48 45 44 42 40 39 37 34 33 33 31 29 28 27 24 24 23 23 25 26 27 27 27 27 26 25 25 25 25 25 25
28 31 33 33 34 35 36 38 39 40 43 47 47 46 47 47 44 42 46 49 46 48 55 60 60 59 58 58 59 57 52 48 47 46 45 45 44 43 43 43 44 46 45 44 44 45 46 48 48 48 48 47 48 50 52 52 51 49 47 45 43 41 39 35 34 32 30 29 28 26 24 24 24 24 26 27 28 28 27 26 26 25 25 25 25 25 25
26 30 33 34 34 34 36 37 39 41 42 43 44 43 42 43 41 36 38 46 49 49 52 56 58 58 57 57 57 56 51 48 46 45 45 45 44 43 42 42 42 42 41 41 42 43 44 44 43 43 43 45 46 49 51 52 52 51 50 47 45 43 39 35 33 31 30 29 28 26 25 25 25 26 27 28 28 27 27 27 26 26 26 25 25 25 25
21 25 30 33 34 34 36 37 38 40 41 40 40 41 41 42 43 38 36 42 49 51 52 52 54 56 56 56 56 54 51 49 48 46 45 45 44 43 42 41 40 40 41 41 41 41 40 39 40 42 45 47 48 49 49 49 50 51 50 48 45 41 37 33 31 31 30 30 29 28 27 28 27 27 28 28 28 28 28 28 27 27 27 27 27 28 28
18 20 23 28 32 33 34 35 35 36 38 39 39 40 40 42 44 41 37 40 49 54 52 51 52 54 55 54 55 55 53 51 51 49 46 46 46 45 43 41 40 40 41 40 39 38 38 39 41 44 46 48 49 49 48 48 49 50 49 46 42 37 34 32 31 32 32 31 30 30 29 28 28 27 27 28 28 28 28 29 28 28 28 29 29 29 29
18 19 18 21 25 28 30 33 34 34 36 38 39 40 40 42 43 42 38 40 49 55 53 51 51 53 53 53 55 56 54 51 50 51 50 49 48 47 44 42 41 41 41 41 39 38 38 38 40 41 43 45 46 46 47 47 48 49 47 43 38 35 33 32 32 33 33 32 31 31 30 28 27 27 28 29 29 30 30 30 30 30 30 30 31 31 30
16 18 19 18 18 20 25 30 34 35 35 36 38 40 41 42 44 43 38 39 48 55 54 51 51 51 50 51 53 55 55 51 49 51 52 51 50 49 46 43 43 43 43 42 40 38 38 37 37 38 40 41 43 43 44 45 45 45 43 38 35 34 35 35 35 35 34 33 32 32 30 29 28 29 30 31 32 32 32 32 32 32 32 32 32 32 32
15 16 18 19 17 16 20 26 32 34 35 36 38 40 41 43 45 44 39 37 45 53 53 51 50 49 48 49 51 53 56 53 48 50 54 53 51 49 47 45 45 45 45 44 41 39 38 36 36 37 38 39 40 42 42 42 42 41 39 36 34 35 37 38 37 36 35 34 33 33 32 31 31 31 32 33 33 34 34 34 34 34 34 34 33 33 33
16 15 15 15 15 16 18 24 29 33 35 36 38 40 42 44 47 48 42 38 42 49 51 52 51 48 46 48 50 52 55 53 48 50 55 56 53 51 49 49 49 48 46 45 43 40 39 38 38 39 39 40 41 42 41 41 40 39 37 35 35 37 39 40 39 38 37 36 35 35 35 34 33 33 34 35 35 35 36 36 36 36 36 35 35 35 35
13 17 16 14 13 15 18 22 27 32 35 37 39 42 44 44 47 50 47 40 40 44 47 51 52 49 46 48 49 48 52 54 50 50 56 58 54 53 52 51 51 50 48 47 45 42 41 40 40 41 42 43 43 42 41 40 40 39 38 38 38 39 40 41 41 41 40 39 39 39 39 38 37 37 37 37 37 36 37 37 37 37 37 37 37 37 37
10 12 16 17 14 15 19 21 24 29 34 37 40 43 44 44 47 51 50 44 40 41 43 45 49 49 47 47 47 46 51 55 51 50 58 62 58 55 55 54 53 52 50 49 48 45 43 42 42 42 43 43 43 42 42 42 41 40 39 39 40 41 41 41 42 44 44 44 43 41 40 39 38 38 40 40 40 38 37 37 37 38 38 39 40 40 40
7 9 12 15 15 14 18 22 24 28 33 37 40 43 44 45 46 50 51 48 42 40 40 40 43 47 47 47 46 45 50 55 51 47 56 65 62 58 58 57 56 55 53 51 50 49 46 44 43 43 44 44 43 43 44 43 42 42 41 41 41 40 40 41 43 45 46 46 44 42 40 39 38 38 38 38 38 37 37 38 40 41 41 42 43 43 43
4 7 8 9 13 15 18 21 25 28 31 35 39 41 43 45 45 46 48 49 45 42 40 39 41 45 47 48 47 46 48 54 51 47 53 64 65 60 59 59 58 58 56 53 52 51 50 48 46 45 45 46 45 46 46 46 45 45 44 43 41 39 39 40 43 44 44 43 42 41 41 41 40 38 37 36 34 34 36 38 41 42 43 44 45 45 46
2 4 7 7 8 14 19 21 24 28 30 33 38 40 41 44 44 42 44 47 46 44 42 41 41 44 46 47 48 46 46 50 51 47 50 62 67 64 61 62 61 60 59 57 54 53 53 52 51 49 48 48 48 50 49 49 49 48 46 44 41 39 39 40 42 41 40 39 40 41 41 40 39 38 38 37 36 36 36 37 38 39 41 42 43 43 44
4 2 3 7 6 9 18 22 24 27 29 32 37 39 38 41 43 42 42 44 44 43 42 41 42 44 47 48 49 47 47 50 51 49 51 61 69 68 64 64 64 62 61 61 59 57 56 57 56 54 53 51 51 52 53 52 51 50 48 46 44 42 41 42 42 41 40 39 40 41 40 39 39 39 39 39 38 38 38 37 37 38 38 38 39 40 41
8 3 1 3 6 4 14 21 23 26 29 32 35 37 37 40 42 41 39 40 41 40 40 42 43 45 47 50 52 53 52 51 49 48 51 59 68 72 69 66 66 65 63 63 64 61 58 57 57 57 57 56 55 55 56 55 54 53 51 50 48 47 47 46 45 45 44 43 43 43 42 40 39 38 38 39 39 38 38 38 38 38 38 38 38 39 40
13 6 3 2 3 4 8 17 21 24 27 31 34 35 37 40 42 40 37 38 40 40 40 42 44 45 47 51 55 56 55 51 46 44 45 47 57 70 74 70 68 69 67 65 67 66 62 59 58 58 59 61 60 59 58 57 56 56 54 53 52 52 51 50 49 49 49 48 47 46 43 40 38 38 38 39 40 40 40 40 39 39 38 38 38 39 39
16 11 4 4 3 3 5 11 18 21 24 29 32 33 33 35 38 40 40 39 38 38 38 39 41 42 45 50 54 56 57 54 49 46 41 33 37 55 71 72 69 71 71 69 68 68 66 63 60 58 57 60 62 61 59 58 58 57 56 56 55 54 54 54 54 54 53 52 50 48 44 41 39 39 40 41 42 43 43 42 41 39 38 37 37 38 38
16 15 11 4 4 5 5 8 14 19 23 26 29 30 30 30 33 37 40 38 35 33 34 37 39 40 42 45 49 51 55 56 54 53 50 40 32 41 59 70 70 70 72 73 71 69 69 67 64 61 59 61 64 63 60 58 58 57 57 58 58 58 58 59 59 58 56 55 53 51 47 43 42 42 43 44 44 45 45 44 42 40 38 37 38 39 39
13 14 14 11 3 4 6 7 11 16 21 25 28 29 30 30 31 34 38 40 38 34 31 31 34 36 38 41 44 46 49 52 51 51 51 48 40 37 47 63 71 72 72 74 73 72 71 69 68 66 65 65 67 66 62 59 59 59 60 61 62 61 62 62 62 61 60 59 55 52 49 47 46 45 45 46 47 46 46 45 42 40 39 40 40 41 41
9 10 11 12 9 3 4 6 9 13 17 22 27 29 30 31 32 33 35 40 42 39 34 30 29 29 31 33 38 41 43 45 44 42 41 42 43 40 42 54 66 71 73 73 73 73 73 72 70 70 68 67 67 65 62 60 60 60 62 64 65 64 64 65 64 63 62 59 55 52 50 49 49 48 47 47 47 47 47 46 44 42 42 42 42 42 42
9 8 8 9 10 8 4 5 8 11 14 18 23 28 30 31 32 32 34 36 39 39 38 35 32 30 29 29 32 36 38 40 39 36 32 31 35 38 41 46 54 63 70 72 72 72 73 73 72 71 69 67 66 65 62 60 59 59 62 65 66 65 65 65 66 66 64 60 56 54 53 53 54 53 51 49 49 48 48 48 47 45 44 44 44 43 43
11 10 8 7 7 8 7 6 7 10 13 15 19 23 26 30 32 33 34 35 36 36 36 35 34 33 32 31 31 32 35 38 40 39 35 30 28 30 35 40 45 53 62 68 70 70 70 70 72 72 70 67 65 64 63 61 59 58 61 65 67 67 66 66 66 67 66 63 60 58 58 58 59 59 56 54 53 52 51 50 49 47 47 47 46 46 46
13 12 10 9 7 7 7 8 8 9 12 14 17 20 23 27 30 32 33 34 34 34 34 34 34 33 32 32 33 33 34 36 39 39 38 36 31 28 28 31 36 43 50 58 64 66 66 65 66 69 70 69 66 64 64 64 64 62 63 65 67 68 68 67 67 67 67 65 64 64 63 63 63 63 61 59 57 55 54 53 52 51 50 50 49 49 49
14 14 13 12 11 8 8 8 9 9 10 13 15 18 21 24 26 29 31 32 33 34 34 34 34 33 31 30 31 32 32 34 35 35 34 34 33 30 27 26 27 32 38 45 51 57 61 62 62 62 63 65 65 65 66 67 68 68 68 68 68 69 69 69 69 68 68 67 66 67 67 66 66 66 64 62 59 58 57 57 56 55 54 53 52 52 52
11 12 13 13 13 12 10 9 9 10 11 12 14 17 19 22 24 27 29 30 31 33 34 34 34 33 32 29 29 29 29 30 31 30 29 28 28 28 27 25 23 24 28 33 37 42 48 54 57 57 58 59 61 63 65 67 68 69 70 71 70 70 71 71 71 71 70 70 69 69 68 67 68 67 65 62 60 60 60 60 59 58 57 56 56 55 55
11 10 11 13 14 14 13 11 10 10 10 12 13 15 18 20 22 25 27 29 30 32 34 34 34 33 32 31 30 29 29 28 28 28 27 26 25 25 25 24 23 23 23 25 28 30 34 39 44 48 51 55 57 60 62 64 66 69 72 74 75 73 72 72 72 71 71 71 72 71 70 69 70 70 68 65 63 63 64 63 63 61 60 59 58 57 57
12 11 10 11 12 14 14 14 13 12 11 11 13 14 17 19 21 23 25 28 30 32 34 35 35 34 33 32 31 31 30 29 29 28 27 26 26 25 24 24 24 23 23 23 24 25 27 29 32 35 39 44 49 52 55 58 61 64 66 70 74 76 75 75 75 74 73 73 73 73 73 74 74 72 70 67 66 66 67 66 66 64 63 62 61 60 59
15 14 12 11 11 12 13 15 15 14 13 12 12 14 15 17 20 22 23 26 29 31 33 35 36 37 36 35 34 33 33 32 31 31 30 29 29 28 27 26 25 25 25 25 24 24 25 25 26 28 30 32 36 40 44 48 53 56 58 60 64 68 71 72 73 73 74 74 74 73 73 74 74 73 71 69 68 68 69 70 70 68 66 65 63 62 62
17 16 15 13 12 11 12 14 15 16 16 14 14 14 15 16 18 20 22 24 26 28 30 32 35 37 38 38 37 36 36 36 35 35 34 33 32 32 31 30 29 28 28 28 27 26 26 25 25 26 27 27 29 31 33 36 40 44 46 49 53 57 61 64 64 64 65 68 70 71 69 67 67 68 69 68 68 68 69 70 70 69 69 67 66 65 65
16 17 16 15 14 12 12 12 13 15 17 17 16 15 15 16 18 19 21 23 24 26 27 30 32 34 35 37 38 38 38 38 38 37 37 36 35 35 35 34 33 32 32 31 31 30 29 28 27 27 27 27 27 28 29 30 31 33 35 37 39 43 47 52 54 54 53 55 58 61 62 61 60 60 62 63 64 64 65 65 65 65 65 65 65 64 65
13 15 16 16 16 14 13 13 13 14 15 17 18 18 17 17 18 19 20 22 23 24 26 28 29 31 32 33 35 36 37 38 39 38 38 37 37 37 37 37 37 36 35 34 34 34 33 32 31 29 29 28 28 28 28 28 29 31 32 32 33 34 36 39 41 42 41 40 42 46 50 51 51 51 52 53 54 54 54 55 54 53 53 54 55 56 57
11 11 13 15 16 16 15 14 14 14 15 16 18 20 20 19 18 19 20 21 22 24 25 26 28 29 30 31 32 34 35 36 37 38 38 38 38 38 38 38 39 39 38 37 37 37 36 36 35 34 33 32 31 31 30 30 30 31 32 32 33 33 33 33 33 34 34 34 35 37 39 41 42 43 43 43 44 44 45 46 46 46 45 46 48 50 52
10 9 10 13 15 16 17 16 15 15 15 16 17 19 21 21 20 20 20 20 22 23 24 26 27 28 29 30 31 32 33 34 35 36 37 37 38 38 38 39 39 40 40 40 40 39 39 39 38 38 37 36 36 35 35 35 35 34 34 34 34 34 34 33 33 33 33 33 33 34 35 36 36 37 36 36 37 39 41 42 44 46 47 48 49 50 51
10 9 9 10 12 14 16 17 17 17 17 17 17 18 20 22 22 21 21 21 21 22 23 25 26 28 29 30 31 32 32 33 33 34 35 35 36 37 37 38 39 39 40 41 42 42 42 42 42 41 41 41 40 40 40 40 40 40 39 39 38 38 37 36 36 36 35 35 35 35 36 36 36 36 37 39 40 42 45 47 47 47 47 48 50 51 52
Wind_Direction
226 225 224 225 225 224 223 223 221 217 208 205 212 217 214 213 215 214 210 205 200 192 190 209 223 222 226 227 221 219 216 214 216 219 220 220 222 224 225 226 228 227 225 225 227 227 228 230 231 233 235 237 241 242 241 240 238 233 232 232 229 230 232 234 233 233 232 231 229 229 228 228 229 230 230 228 227 227 226 226 226 225 226 228 229 231 233
227 226 224 223 224 223 223 223 223 221 215 209 210 212 210 210 214 216 213 208 203 196 192 196 202 210 220 223 218 218 218 215 216 219 217 215 216 219 222 223 226 228 227 226 227 227 228 229 229 232 234 235 239 243 242 241 241 236 232 231 231 231 233 234 234 234 234 233 231 231 230 230 230 230 230 230 229 229 229 230 230 229 230 230 230 232 234
228 226 225 225 226 225 225 224 223 222 219 213 210 211 211 210 212 213 211 210 207 198 192 194 197 204 214 215 212 214 217 216 216 217 215 213 213 215 218 219 220 222 224 225 227 227 227 228 228 230 232 233 236 240 241 240 241 239 234 231 231 232 234 235 235 235 236 236 235 234 233 233 233 232 232 231 230 231 231 232 234 234 235 234 234 235 236
227 226 225 225 226 227 225 224 223 221 220 216 213 212 212 212 213 211 211 213 209 197 193 201 205 207 211 209 209 212 214 214 216 217 218 218 217 217 219 218 218 219 221 222 224 226 229 229 227 227 229 231 233 236 238 238 239 238 234 229 228 231 233 236 237 237 238 238 238 237 237 236 236 235 234 233 232 232 233 234 235 237 238 239 239 239 239
227 226 226 224 223 224 224 222 221 221 221 220 218 216 214 213 212 210 210 213 208 198 201 210 211 212 216 214 211 213 214 213 213 215 219 220 220 221 221 220 219 220 222 223 224 225 228 230 228 226 226 228 231 234 236 236 237 236 234 229 228 229 232 235 238 240 241 241 241 240 240 239 239 238 238 236 235 234 235 236 236 237 239 241 243 243 243
228 225 225 225 222 222 222 221 220 220 222 223 222 220 216 215 215 214 213 215 212 205 208 214 214 216 221 222 217 215 214 214 213 213 215 218 220 221 220 219 218 218 220 224 226 226 228 229 228 227 227 226 227 231 234 234 234 234 233 231 229 230 232 233 236 240 242 243 243 243 242 242 242 242 242 241 239 238 238 238 237 237 239 241 243 246 246
232 227 227 228 225 222 221 220 220 221 223 224 225 223 219 217 219 220 219 220 220 217 214 213 213 215 218 220 220 218 216 216 215 213 213 216 220 221 220 219 219 218 219 222 224 227 229 230 229 228 229 229 227 228 231 233 233 234 234 232 230 230 232 233 235 239 243 244 245 245 245 245 244 244 245 244 243 243 242 242 241 240 240 241 243 245 247
233 231 230 231 229 223 220 219 220 223 224 224 225 225 222 218 218 222 223 223 225 225 221 216 212 213 214 215 217 218 219 217 215 214 215 216 218 222 222 221 221 222 222 222 224 227 230 232 232 229 230 233 232 229 230 232 233 234 234 234 232 231 233 235 236 240 244 245 246 246 247 248 247 246 245 245 245 245 245 245 244 244 243 243 244 245 247
229 230 232 234 231 223 218 217 219 221 222 223 225 226 225 220 218 221 223 224 224 226 224 218 214 215 216 215 214 215 217 219 217 215 216 216 216 219 222 223 223 224 224 224 226 229 230 233 235 234 233 237 238 234 229 229 231 233 234 235 234 233 235 237 238 241 245 246 247 247 247 248 249 248 247 245 245 246 247 247 247 247 247 247 246 246 247
224 228 231 232 227 220 216 216 219 219 218 220 223 225 226 223 220 220 222 222 223 225 224 218 215 215 216 215 214 214 215 218 218 216 216 216 215 217 220 222 224 225 225 226 227 229 230 231 235 236 236 238 241 240 234 229 230 232 234 236 236 235 236 239 240 243 246 248 247 246 247 249 249 249 248 246 245 245 246 248 249 249 248 248 247 247 247
221 223 228 229 224 218 216 216 218 218 217 218 221 223 223 223 222 222 221 221 221 222 221 217 216 216 214 213 215 215 214 216 218 218 217 217 216 217 219 222 223 225 226 227 227 229 230 231 233 236 237 238 239 241 239 234 231 232 233 236 237 236 238 241 242 243 245 248 248 248 249 250 249 248 248 247 246 245 245 247 248 249 249 249 248 247 246
222 221 224 223 221 219 217 215 217 217 217 217 220 223 222 220 221 223 223 222 221 220 218 215 215 216 214 213 214 215 214 215 217 219 219 218 218 217 218 221 223 225 227 228 228 229 230 231 233 234 236 237 238 239 239 238 236 234 234 235 237 237 239 242 243 243 244 247 248 248 249 250 249 247 246 246 245 245 245 246 248 249 250 248 246 245 244
221 222 222 219 218 218 217 215 216 217 217 218 220 222 220 219 220 224 223 222 221 220 217 213 213 215 214 212 212 214 215 214 216 218 219 219 219 219 219 221 223 225 226 227 228 229 230 231 231 232 234 235 236 237 237 238 239 237 235 235 237 239 241 243 244 244 245 247 247 246 247 249 249 248 246 245 244 244 244 247 249 249 249 246 244 242 241
219 220 220 217 215 216 216 214 215 216 217 218 219 220 219 216 217 221 223 221 220 220 219 215 212 213 213 211 211 213 215 214 214 218 219 218 219 219 219 221 223 225 226 228 228 229 230 230 230 231 233 234 235 236 236 237 240 240 237 236 238 241 244 245 244 244 246 247 247 245 245 248 249 249 247 245 243 244 245 248 251 250 247 244 241 240 239
217 217 216 215 215 214 213 212 213 215 216 217 218 220 220 217 216 219 222 220 219 219 219 216 214 214 213 211 210 213 214 214 214 217 219 219 219 219 219 220 222 225 227 229 230 230 229 229 228 230 232 233 233 236 236 236 240 242 241 240 240 241 244 246 245 245 246 248 247 246 246 248 248 247 246 244 244 245 247 250 251 249 245 241 238 237 236
216 214 214 214 214 213 211 210 211 213 215 215 217 218 219 219 219 221 223 222 218 217 218 217 216 215 214 212 210 212 214 214 214 217 219 219 219 218 219 219 220 223 227 230 231 230 229 228 226 228 230 231 233 236 234 233 238 241 241 242 243 243 245 247 246 246 247 248 248 247 247 247 246 244 243 243 244 245 247 249 249 245 241 238 236 234 234
216 213 213 215 213 212 212 211 210 210 211 213 216 217 217 218 220 222 223 222 218 216 216 215 215 216 215 212 211 212 213 213 214 216 218 219 219 218 218 219 219 221 225 229 230 229 229 228 226 227 229 229 231 234 233 233 236 239 239 240 242 244 246 247 247 247 248 248 247 246 245 245 244 242 242 242 243 245 246 247 245 240 236 234 232 231 231
216 215 215 217 215 213 213 212 210 209 209 210 213 216 217 218 220 222 222 221 217 214 213 214 215 216 214 212 211 212 212 212 213 214 216 217 217 217 218 218 218 219 222 227 228 228 228 228 228 229 229 228 228 230 232 234 236 236 236 237 239 241 245 247 247 247 247 246 245 243 242 243 242 241 240 240 240 242 243 242 239 235 232 230 229 229 229
216 217 217 218 217 215 213 212 210 209 209 209 211 213 215 216 216 219 221 220 215 211 210 212 213 214 213 211 211 210 209 209 211 212 213 215 215 216 216 217 217 217 220 223 225 225 226 227 229 230 231 230 229 229 230 232 233 231 232 234 236 240 244 246 245 244 243 242 241 241 241 241 241 240 238 238 238 239 239 237 234 230 228 228 227 227 228
216 220 221 221 220 218 214 212 211 209 209 210 211 213 214 211 207 208 216 218 214 208 207 209 211 212 212 211 210 208 207 207 208 209 211 212 213 213 214 215 215 214 214 215 217 221 224 226 228 229 228 227 226 225 226 227 227 226 228 230 234 239 242 241 238 237 237 238 239 239 238 238 238 237 236 235 235 235 234 232 229 226 225 225 225 224 224
220 224 224 223 222 219 215 212 211 210 208 209 212 214 213 210 206 204 209 213 210 205 205 208 209 210 211 210 207 206 206 208 210 210 210 210 211 211 212 212 210 208 208 211 214 218 222 223 222 222 222 221 221 221 222 222 221 222 224 228 234 237 236 232 231 232 234 235 236 236 236 237 236 236 235 234 234 232 230 229 227 226 225 224 223 223 224
229 231 229 226 225 222 218 214 212 209 207 208 211 214 213 210 208 207 208 207 205 205 207 208 208 209 209 207 205 205 206 208 209 209 209 209 209 209 210 209 208 206 207 211 215 217 218 218 217 218 218 219 219 219 218 218 218 219 222 227 232 232 227 224 226 230 232 234 235 236 237 238 237 235 234 233 232 230 229 228 228 227 226 225 225 227 230
236 234 230 227 226 225 222 218 213 209 208 208 210 213 212 209 206 206 208 205 202 204 208 210 209 209 207 204 203 205 206 207 208 206 206 208 208 208 209 209 207 207 208 211 214 215 214 214 214 214 213 214 215 214 214 213 215 218 222 225 227 225 223 224 226 229 232 233 235 237 238 239 237 233 230 229 229 228 227 226 227 227 227 227 227 230 234
239 235 229 225 223 222 220 218 216 212 210 210 210 210 211 208 203 202 205 204 201 203 208 210 210 210 206 202 203 205 206 208 208 205 204 206 207 207 209 210 208 208 209 211 212 212 211 210 209 208 207 207 207 208 210 212 215 218 221 224 224 223 223 225 226 229 232 234 236 238 238 237 234 230 228 228 228 226 225 226 227 228 228 229 231 233 236
244 241 235 230 224 217 213 213 216 215 212 212 210 208 208 206 201 199 202 202 200 202 206 208 210 211 206 202 202 205 206 208 208 205 203 205 207 208 209 210 209 208 209 210 210 209 208 207 207 206 206 205 205 207 210 212 215 218 221 223 225 225 226 227 228 230 232 235 237 239 239 238 235 231 229 228 228 227 226 226 227 229 230 231 233 236 239
256 252 246 236 225 217 210 209 211 213 212 211 208 205 205 204 200 199 201 201 199 202 207 209 210 210 206 202 202 205 207 209 209 205 202 204 206 208 209 210 208 207 208 210 210 210 208 206 206 207 207 208 209 211 213 215 217 220 223 226 228 227 227 228 229 230 231 233 236 238 239 239 237 235 232 231 230 229 228 229 229 230 232 233 235 238 241
276 260 255 249 234 218 211 208 208 209 209 208 205 202 202 202 200 199 201 202 200 201 207 211 212 211 208 203 203 206 207 208 209 206 202 203 206 207 208 209 208 206 208 210 211 211 209 207 207 208 208 210 212 213 215 217 219 221 223 225 226 227 227 228 228 229 230 232 233 235 235 237 238 239 237 236 235 233 232 232 232 233 235 237 238 241 243
317 279 261 255 245 221 207 204 206 205 204 203 202 200 199 199 198 198 201 202 201 200 204 208 211 212 210 206 206 208 208 206 208 208 204 203 205 207 207 208 207 206 206 210 213 214 212 210 209 210 210 212 213 214 215 218 220 221 222 223 225 226 227 227 227 228 230 231 232 233 234 236 239 241 240 239 240 239 238 238 238 237 237 240 242 243 245
333 312 276 255 245 226 205 200 202 203 201 199 199 198 196 195 195 197 200 203 203 201 202 204 207 209 210 207 207 209 208 207 211 213 207 204 205 206 206 206 207 205 206 208 212 215 216 213 211 211 212 212 213 214 216 218 220 221 222 224 225 226 226 226 226 227 228 229 232 234 235 237 240 241 241 241 243 244 243 243 242 242 241 242 243 245 247
333 331 309 264 240 224 207 197 196 198 198 197 196 196 194 192 193 196 200 203 204 203 201 202 205 207 208 207 208 210 209 208 213 218 211 204 204 206 206 206 206 205 206 207 209 212 215 217 215 213 212 213 213 215 216 219 221 222 223 223 224 225 226 226 228 229 230 231 233 234 236 237 239 241 243 244 245 245 244 242 242 244 245 246 247 248 249
33 351 333 304 251 220 207 197 192 194 197 197 196 194 193 192 193 196 199 202 205 206 203 202 205 208 208 207 207 209 211 212 217 221 214 206 205 207 207 207 207 206 205 208 209 209 211 215 218 217 215 213 214 215 217 219 222 223 224 224 224 225 227 229 231 233 235 236 238 239 240 241 243 244 246 246 245 245 245 244 244 245 247 248 249 251 252
44 54 338 322 297 222 204 198 190 189 194 198 196 195 195 194 194 196 197 199 203 207 206 204 206 210 210 207 205 207 210 213 218 222 216 207 205 207 207 207 208 208 207 209 212 211 208 209 213 217 217 215 214 215 217 220 222 224 225 226 227 229 231 232 234 236 237 238 239 240 241 243 245 246 247 248 248 247 247 248 248 249 251 252 254 254 254
5 42 110 307 318 252 203 198 193 188 191 196 197 197 197 196 195 195 198 199 201 205 206 205 208 212 211 208 207 208 208 210 214 217 212 204 203 206 208 207 208 209 209 211 214 216 213 210 210 213 216 217 216 216 217 219 222 224 226 228 229 230 232 234 236 238 238 238 239 240 241 243 246 249 251 252 253 252 252 253 254 255 257 258 258 257 256
348 7 108 157 308 295 214 197 193 190 191 195 198 198 197 197 197 198 201 202 203 204 205 206 209 212 212 211 211 212 212 212 212 210 206 200 200 203 206 207 208 209 211 212 214 217 218 216 212 213 216 217 216 216 218 219 222 224 226 228 230 231 233 235 238 239 239 239 240 240 241 243 246 251 254 256 257 258 258 258 258 259 260 260 260 259 258
344 347 14 126 162 262 242 202 193 192 193 197 201 202 201 199 199 202 205 205 205 206 208 210 212 213 213 214 215 215 217 219 216 212 210 209 203 201 203 205 207 209 211 213 215 216 218 218 217 217 220 220 217 215 217 220 222 224 226 228 230 232 233 234 235 237 239 241 241 239 239 241 245 249 253 256 258 259 259 259 259 259 258 258 258 258 257
342 339 339 358 153 190 232 221 203 197 196 198 203 209 210 208 205 206 207 206 204 203 204 208 213 216 218 218 218 218 221 224 224 223 225 229 224 209 204 204 206 208 210 213 215 216 217 219 220 220 222 222 218 215 215 219 222 224 226 228 230 232 233 232 231 231 234 236 237 237 238 240 243 247 251 255 257 258 258 258 258 257 256 256 255 255 255
333 332 330 330 325 176 196 222 218 207 201 200 202 207 212 213 213 212 211 209 207 206 202 200 203 210 216 220 220 221 224 228 230 232 234 236 237 227 212 206 206 209 211 213 215 217 218 220 222 222 223 224 220 215 214 218 221 223 225 226 228 230 233 234 233 232 232 231 231 233 237 240 242 245 250 253 255 257 257 257 256 255 254 254 253 253 253
312 320 322 323 320 289 190 197 213 215 210 204 201 202 205 209 212 215 215 214 215 216 216 212 207 206 210 216 219 221 225 229 232 235 237 238 239 237 223 210 208 210 212 214 216 218 219 221 222 223 225 227 225 219 216 218 221 223 225 226 226 228 231 233 235 236 236 232 228 228 233 238 242 244 247 249 252 253 253 252 251 250 249 250 251 251 252
285 293 303 313 314 304 265 205 199 209 215 212 206 203 203 204 207 210 213 215 218 221 223 225 225 224 222 221 221 221 223 226 229 232 236 236 236 236 231 221 214 212 213 215 217 219 219 222 223 224 225 228 227 222 219 220 223 226 228 228 228 228 230 231 233 235 236 234 230 229 232 237 241 242 243 244 246 248 248 247 245 245 245 246 247 249 250
276 272 274 283 296 296 281 251 211 202 209 214 212 209 207 205 206 206 207 210 214 219 221 224 227 230 231 232 231 229 228 227 230 234 239 242 242 240 237 231 224 217 215 216 218 220 221 222 224 226 228 230 228 226 224 225 227 229 230 230 231 231 231 231 233 234 234 233 233 233 236 239 241 242 241 241 243 245 246 245 243 242 242 243 245 246 247
278 269 260 258 264 274 273 264 242 216 207 209 211 211 210 208 207 207 208 208 209 212 214 217 221 224 227 230 233 236 235 233 234 237 242 246 249 250 246 238 232 226 221 220 221 223 224 224 225 227 230 232 232 231 230 230 231 230 231 232 234 235 234 233 233 234 235 235 235 236 237 239 241 243 243 242 243 245 245 244 243 241 241 242 244 245 247
282 273 262 252 247 248 253 255 250 236 220 211 209 211 212 210 209 209 209 209 209 208 209 211 214 216 218 221 226 231 235 236 237 239 242 245 248 249 248 242 235 229 226 225 225 226 227 228 228 229 230 232 233 235 236 236 235 233 233 234 235 236 237 236 235 235 236 237 237 237 237 238 241 243 243 241 242 244 245 245 244 243 242 243 244 245 247
289 278 268 256 246 239 238 242 244 240 232 221 213 211 211 211 211 210 209 209 208 207 206 206 208 208 209 210 213 219 224 229 232 234 237 239 241 242 241 239 235 229 225 226 227 227 228 230 233 234 234 234 234 234 236 237 238 237 237 236 236 237 238 239 238 237 238 239 240 240 239 238 240 241 241 240 240 242 244 245 245 245 244 244 245 246 248
294 285 274 263 251 240 234 234 234 235 233 227 220 215 212 211 211 212 211 211 209 208 206 204 204 203 203 203 205 208 212 216 220 224 226 228 230 233 233 232 231 228 224 223 224 225 227 230 233 235 236 237 237 237 237 237 237 237 237 236 236 236 238 240 240 240 240 241 242 243 242 242 242 241 240 239 240 241 242 244 245 245 245 246 246 247 249
290 287 280 270 258 245 236 232 231 230 230 227 223 218 214 212 211 212 212 213 213 211 209 207 206 205 203 202 203 204 205 207 210 213 214 215 217 220 222 223 223 223 223 222 223 224 226 227 230 232 234 235 236 238 239 239 239 238 237 235 234 235 236 238 240 242 242 243 243 243 243 244 244 242 240 239 240 242 242 243 243 244 245 246 247 248 250
283 281 278 272 265 252 240 233 230 228 226 225 223 221 218 215 213 212 212 213 214 214 213 213 212 211 210 209 208 207 206 205 205 206 206 207 208 211 213 215 215 216 216 217 218 221 224 226 228 229 230 232 233 234 236 237 238 240 240 239 238 238 238 238 238 239 240 241 242 242 242 241 240 240 239 239 240 242 243 243 243 242 243 245 246 248 250
276 274 272 269 265 259 247 237 232 228 226 224 223 221 219 218 216 214 213 213 215 215 215 216 216 216 216 216 215 215 213 211 208 206 205 205 206 207 208 210 211 211 213 214 214 215 218 222 225 226 228 229 231 232 233 235 237 239 241 241 241 241 242 242 241 242 241 241 241 241 240 239 238 238 238 239 240 241 243 243 243 242 242 244 247 249 251
272 268 267 264 261 258 252 243 236 231 228 226 225 223 220 218 217 216 215 215 215 216 216 217 217 218 218 218 218 218 217 216 214 211 209 208 207 207 208 209 210 210 211 212 213 213 214 216 219 222 225 226 227 229 230 231 232 235 238 239 239 239 240 242 243 244 244 243 241 241 242 242 242 242 242 242 243 244 245 245 245 244 244 246 249 251 253
273 265 262 258 256 254 250 245 240 235 231 228 227 226 223 219 216 216 216 216 216 217 218 218 219 219 218 218 218 217 217 216 216 215 213 212 211 211 211 211 212 212 212 212 213 214 213 214 215 217 220 223 225 226 227 228 228 228 230 233 235 236 237 238 239 241 242 242 240 240 241 243 243 244 245 246 246 247 247 248 247 247 247 249 251 252 254
278 268 259 254 252 250 246 242 238 236 232 230 227 226 226 224 220 217 216 216 216 217 218 220 221 221 220 220 219 219 217 216 216 215 215 214 214 215 214 213 214 214 214 214 214 214 215 215 215 216 217 218 220 222 224 225 226 226 227 229 232 234 235 236 237 239 240 240 240 240 241 242 244 246 247 248 250 251 251 250 250 250 250 249 249 251 253
283 274 263 255 251 247 244 241 237 234 232 230 228 226 225 225 224 221 218 217 217 217 217 219 220 221 221 221 221 221 220 219 218 217 217 216 216 216 215 215 214 215 215 215 216 216 216 216 217 217 218 218 219 220 221 221 222 223 225 227 229 230 231 231 232 233 235 236 238 239 241 241 242 243 245 248 250 251 251 249 248 249 249 247 246 247 249
283 278 272 263 254 247 243 239 237 234 233 231 229 226 224 223 223 223 222 220 219 219 218 218 219 219 220 221 221 221 221 221 220 220 219 219 218 217 217 217 216 216 217 217 217 217 217 218 218 219 219 220 220 221 221 221 221 221 222 224 225 226 226 226 226 227 228 229 232 236 238 238 237 239 243 248 251 253 253 251 248 246 247 247 246 246 249
Height
5712 5716 5718 5720 5721 5724 5728 5731 5734 5738 5743 5749 5753 5758 5764 5771 5775 5781 5788 5793 5797 5802 5807 5808 5808 5812 5815 5817 5821 5824 5826 5827 5828 5832 5838 5843 5846 5849 5851 5853 5855 5857 5862 5866 5868 5871 5873 5875 5877 5880 5882 5883 5885 5887 5890 5892 5894 5897 5898 5900 5902 5904 5906 5908 5911 5913 5914 5916 5917 5919 5921 5923 5925 5928 5930 5932 5934 5935 5937 5938 5939 5940 5941 5943 5944 5945 5946
5702 5706 5709 5712 5713 5717 5722 5725 5729 5733 5738 5742 5746 5751 5759 5764 5768 5775 5782 5787 5792 5796 5798 5799 5801 5805 5808 5812 5817 5821 5822 5824 5826 5830 5836 5841 5844 5846 5848 5850 5852 5855 5858 5862 5865 5867 5870 5872 5874 5877 5879 5881 5883 5885 5888 5890 5892 5894 5897 5899 5900 5902 5904 5907 5909 5910 5912 5914 5915 5917 5919 5921 5923 5925 5927 5929 5931 5933 5935 5936 5938 5939 5940 5941 5943 5944 5944
5693 5698 5703 5706 5709 5713 5718 5721 5725 5729 5734 5738 5742 5746 5751 5756 5761 5768 5775 5779 5784 5788 5790 5792 5796 5800 5804 5809 5812 5814 5817 5820 5823 5826 5831 5833 5835 5836 5839 5841 5845 5848 5852 5857 5861 5864 5866 5869 5872 5874 5876 5879 5881 5882 5885 5887 5890 5892 5894 5897 5899 5901 5902 5904 5906 5908 5910 5912 5914 5915 5917 5919 5921 5922 5924 5926 5928 5931 5933 5934 5936 5937 5938 5939 5941 5942 5943
5685 5692 5698 5702 5706 5710 5711 5715 5719 5724 5728 5733 5738 5741 5744 5750 5756 5762 5766 5769 5776 5783 5785 5787 5792 5795 5798 5803 5806 5809 5813 5817 5820 5823 5826 5828 5829 5831 5833 5836 5840 5844 5848 5852 5857 5860 5863 5866 5869 5872 5874 5876 5878 5880 5882 5885 5887 5889 5891 5894 5897 5898 5900 5901 5903 5906 5908 5910 5912 5913 5915 5917 5919 5920 5922 5924 5926 5928 5930 5932 5933 5935 5936 5938 5939 5940 5941
5682 5688 5691 5695 5700 5700 5700 5707 5715 5720 5723 5728 5732 5736 5741 5747 5751 5755 5758 5762 5770 5778 5778 5781 5788 5791 5793 5799 5802 5805 5810 5814 5816 5819 5822 5824 5827 5830 5833 5837 5840 5843 5845 5850 5853 5857 5860 5863 5866 5869 5872 5874 5876 5878 5880 5882 5884 5886 5888 5891 5894 5895 5897 5899 5901 5904 5905 5907 5909 5911 5913 5915 5916 5918 5920 5922 5924 5926 5928 5929 5931 5933 5934 5935 5936 5938 5939
5676 5680 5683 5686 5688 5688 5693 5705 5712 5716 5719 5723 5727 5731 5737 5741 5745 5750 5754 5757 5763 5767 5768 5775 5784 5788 5792 5797 5800 5803 5808 5810 5811 5813 5816 5820 5823 5826 5830 5834 5837 5839 5843 5847 5851 5854 5856 5859 5862 5866 5868 5871 5874 5875 5877 5879 5881 5883 5885 5888 5890 5893 5895 5897 5899 5901 5903 5905 5907 5909 5911 5913 5914 5916 5918 5920 5922 5924 5925 5926 5928 5930 5932 5933 5934 5935 5937
5670 5674 5677 5677 5677 5683 5693 5703 5710 5713 5716 5719 5722 5726 5731 5736 5741 5745 5747 5750 5754 5757 5762 5772 5781 5785 5789 5794 5798 5800 5802 5804 5806 5809 5811 5814 5818 5822 5826 5829 5832 5836 5840 5844 5848 5851 5853 5855 5859 5862 5864 5868 5871 5872 5873 5876 5878 5881 5883 5885 5887 5890 5892 5895 5897 5899 5900 5902 5904 5906 5908 5910 5912 5914 5916 5918 5920 5921 5923 5924 5926 5928 5929 5930 5932 5933 5934
5666 5669 5671 5670 5673 5683 5694 5703 5707 5708 5709 5712 5715 5719 5724 5730 5735 5738 5741 5746 5749 5752 5759 5769 5778 5782 5786 5790 5794 5795 5795 5797 5803 5806 5809 5812 5816 5820 5823 5826 5829 5833 5837 5841 5845 5848 5851 5853 5855 5857 5861 5864 5867 5870 5872 5874 5876 5878 5880 5882 5884 5887 5890 5893 5896 5897 5898 5900 5901 5903 5905 5907 5910 5912 5913 5915 5917 5918 5920 5921 5923 5925 5926 5927 5929 5930 5932
5662 5665 5667 5669 5674 5684 5693 5697 5696 5696 5701 5707 5710 5713 5719 5725 5730 5733 5736 5741 5743 5746 5754 5765 5773 5778 5781 5786 5788 5787 5789 5795 5801 5804 5807 5811 5814 5817 5819 5822 5826 5830 5834 5838 5842 5845 5849 5852 5853 5855 5859 5861 5863 5866 5869 5871 5873 5875 5877 5879 5882 5885 5888 5890 5893 5895 5896 5897 5899 5901 5903 5905 5906 5908 5910 5912 5914 5915 5917 5918 5920 5922 5923 5924 5926 5927 5929
5659 5661 5663 5665 5669 5678 5684 5685 5685 5689 5696 5700 5703 5707 5713 5718 5724 5727 5729 5733 5736 5741 5749 5759 5766 5770 5774 5779 5781 5782 5787 5794 5798 5801 5805 5808 5811 5813 5816 5819 5823 5827 5830 5834 5838 5843 5847 5849 5851 5854 5857 5859 5861 5863 5865 5868 5871 5873 5875 5877 5880 5883 5886 5888 5890 5892 5893 5895 5897 5898 5900 5902 5904 5905 5907 5909 5911 5912 5913 5915 5916 5918 5920 5921 5923 5924 5926
5655 5657 5658 5661 5665 5670 5674 5677 5681 5687 5691 5694 5698 5702 5704 5709 5715 5720 5723 5727 5731 5736 5745 5754 5759 5762 5767 5772 5775 5779 5786 5790 5793 5798 5802 5804 5807 5810 5812 5815 5819 5822 5826 5831 5836 5840 5843 5847 5850 5853 5855 5856 5858 5860 5863 5865 5868 5870 5873 5876 5879 5881 5883 5885 5887 5889 5891 5892 5894 5896 5898 5899 5900 5902 5903 5905 5907 5908 5910 5911 5913 5914 5916 5918 5919 5921 5923
5651 5653 5655 5658 5661 5664 5668 5672 5678 5682 5686 5690 5693 5694 5697 5704 5711 5714 5719 5724 5727 5733 5741 5748 5752 5755 5762 5767 5772 5778 5783 5787 5790 5794 5797 5800 5803 5805 5808 5812 5815 5819 5823 5828 5833 5836 5839 5844 5848 5850 5851 5853 5855 5858 5860 5862 5865 5868 5872 5875 5876 5878 5880 5882 5884 5886 5888 5889 5891 5893 5895 5896 5897 5898 5900 5901 5903 5905 5906 5908 5909 5911 5913 5914 5916 5918 5920
5647 5650 5652 5655 5658 5660 5663 5667 5672 5676 5680 5684 5685 5688 5694 5701 5706 5708 5712 5718 5723 5729 5736 5742 5747 5753 5758 5764 5770 5774 5778 5782 5786 5790 5793 5796 5799 5801 5805 5808 5812 5816 5820 5825 5829 5832 5836 5840 5844 5846 5848 5849 5852 5856 5858 5860 5863 5867 5870 5872 5873 5875 5877 5879 5881 5883 5885 5887 5888 5890 5891 5892 5893 5895 5896 5898 5899 5901 5903 5904 5906 5908 5909 5911 5913 5915 5916
5645 5647 5649 5652 5654 5655 5658 5662 5667 5671 5675 5679 5682 5686 5690 5695 5698 5700 5704 5709 5716 5723 5730 5737 5744 5749 5754 5760 5766 5769 5773 5778 5782 5785 5788 5792 5794 5797 5801 5804 5808 5812 5816 5820 5825 5828 5832 5836 5840 5842 5844 5846 5849 5853 5855 5858 5862 5864 5866 5868 5870 5872 5874 5876 5879 5881 5882 5884 5885 5887 5888 5889 5890 5892 5893 5894 5896 5898 5900 5901 5903 5905 5906 5907 5909 5911 5913
5642 5643 5645 5647 5648 5651 5655 5659 5663 5666 5669 5673 5677 5681 5685 5688 5692 5695 5699 5704 5710 5717 5725 5734 5741 5745 5750 5756 5761 5764 5768 5774 5778 5781 5784 5788 5791 5794 5797 5800 5803 5808 5812 5816 5820 5824 5828 5832 5836 5838 5840 5842 5846 5850 5854 5857 5859 5859 5861 5864 5867 5869 5871 5873 5876 5878 5879 5880 5882 5883 5885 5886 5887 5888 5890 5891 5893 5895 5897 5898 5900 5902 5903 5904 5906 5908 5910
5639 5640 5642 5643 5646 5649 5652 5655 5657 5659 5663 5668 5673 5677 5680 5683 5687 5692 5696 5701 5706 5713 5722 5730 5736 5741 5746 5751 5756 5759 5764 5770 5774 5777 5780 5784 5787 5790 5793 5796 5800 5804 5808 5812 5816 5820 5824 5828 5831 5833 5835 5839 5843 5848 5852 5854 5853 5854 5858 5861 5863 5866 5868 5870 5873 5874 5875 5877 5878 5879 5881 5882 5883 5885 5886 5888 5890 5892 5894 5895 5897 5899 5900 5902 5904 5906 5908
5636 5638 5639 5641 5643 5645 5646 5649 5651 5655 5660 5665 5670 5673 5676 5680 5684 5689 5693 5698 5703 5710 5718 5726 5731 5736 5741 5747 5751 5755 5760 5766 5770 5773 5777 5781 5784 5787 5789 5793 5796 5800 5804 5807 5811 5815 5819 5822 5826 5829 5831 5836 5841 5845 5847 5848 5848 5851 5855 5857 5860 5862 5865 5867 5869 5871 5872 5873 5874 5876 5878 5879 5880 5881 5883 5885 5887 5889 5891 5892 5894 5896 5897 5899 5901 5903 5905
5633 5635 5636 5637 5639 5640 5642 5645 5649 5653 5657 5661 5665 5669 5673 5677 5681 5685 5690 5695 5701 5707 5714 5721 5727 5731 5736 5742 5747 5751 5757 5762 5765 5769 5773 5777 5780 5783 5786 5790 5793 5797 5800 5803 5806 5810 5814 5817 5821 5824 5827 5832 5837 5839 5841 5842 5844 5848 5851 5854 5857 5859 5861 5864 5866 5867 5868 5870 5871 5873 5874 5876 5877 5878 5880 5882 5884 5886 5887 5889 5891 5893 5894 5896 5898 5900 5902
5631 5632 5633 5634 5636 5637 5640 5643 5646 5649 5652 5657 5662 5666 5670 5674 5679 5682 5686 5692 5698 5704 5710 5717 5722 5727 5732 5737 5742 5748 5753 5757 5761 5766 5770 5773 5777 5780 5783 5786 5789 5793 5796 5799 5802 5806 5809 5812 5816 5819 5823 5828 5831 5834 5836 5838 5841 5844 5848 5851 5853 5856 5858 5861 5862 5864 5865 5866 5868 5870 5871 5872 5874 5875 5877 5879 5881 5883 5885 5886 5888 5890 5891 5893 5895 5897 5899
5628 5629 5630 5631 5633 5635 5637 5639 5642 5646 5650 5655 5660 5664 5667 5671 5675 5679 5683 5688 5695 5701 5707 5712 5718 5723 5728 5733 5739 5745 5750 5754 5758 5762 5766 5769 5773 5777 5780 5783 5786 5790 5793 5796 5799 5802 5806 5809 5812 5816 5820 5823 5826 5829 5831 5834 5836 5841 5844 5847 5850 5852 5855 5857 5858 5860 5861 5863 5864 5866 5868 5869 5870 5872 5874 5876 5878 5880 5882 5883 5885 5887 5888 5890 5892 5894 5896
5626 5627 5628 5629 5631 5633 5635 5637 5639 5644 5649 5655 5659 5661 5664 5668 5672 5676 5679 5684 5691 5698 5703 5708 5713 5718 5724 5729 5736 5742 5748 5751 5755 5759 5763 5766 5770 5774 5777 5780 5783 5787 5790 5793 5796 5800 5803 5806 5809 5812 5815 5818 5820 5823 5827 5829 5833 5837 5841 5843 5846 5848 5851 5853 5855 5856 5858 5859 5861 5863 5864 5865 5867 5869 5871 5873 5875 5877 5878 5880 5882 5884 5886 5887 5889 5891 5892
5625 5626 5627 5628 5629 5631 5633 5636 5639 5643 5648 5652 5655 5657 5661 5665 5670 5673 5677 5681 5687 5693 5699 5704 5710 5715 5720 5726 5732 5737 5742 5746 5750 5755 5759 5763 5766 5770 5773 5777 5780 5784 5787 5790 5794 5797 5800 5803 5805 5808 5810 5813 5816 5820 5823 5826 5830 5833 5837 5839 5842 5844 5847 5849 5851 5853 5854 5856 5858 5859 5861 5862 5864 5867 5868 5870 5872 5874 5875 5877 5880 5881 5883 5885 5887 5888 5889
5624 5625 5625 5627 5628 5630 5632 5635 5638 5641 5645 5648 5651 5654 5658 5662 5667 5671 5674 5678 5683 5689 5695 5701 5706 5711 5716 5723 5728 5732 5736 5740 5745 5750 5754 5758 5762 5766 5770 5773 5777 5781 5784 5787 5791 5793 5796 5798 5801 5804 5807 5809 5812 5815 5819 5822 5826 5830 5833 5835 5838 5841 5843 5845 5847 5849 5851 5853 5855 5856 5858 5860 5862 5864 5866 5867 5869 5871 5873 5875 5877 5878 5880 5882 5884 5885 5887
5622 5623 5624 5625 5627 5629 5631 5633 5635 5638 5641 5644 5647 5650 5654 5659 5664 5669 5672 5675 5680 5685 5691 5697 5703 5707 5713 5719 5724 5728 5733 5737 5741 5746 5751 5755 5758 5762 5766 5770 5773 5777 5781 5784 5786 5790 5792 5795 5797 5801 5803 5806 5809 5812 5815 5819 5823 5827 5830 5832 5835 5837 5839 5841 5843 5845 5847 5849 5851 5853 5855 5857 5859 5861 5862 5864 5866 5868 5870 5872 5874 5876 5878 5879 5881 5883 5884
5621 5621 5622 5623 5625 5627 5629 5630 5632 5635 5637 5640 5643 5647 5651 5656 5661 5666 5670 5673 5677 5682 5688 5694 5699 5704 5709 5715 5719 5723 5728 5732 5736 5741 5746 5751 5755 5759 5763 5766 5769 5773 5776 5779 5782 5786 5788 5791 5794 5797 5800 5803 5806 5810 5813 5817 5820 5823 5826 5829 5831 5833 5835 5837 5839 5842 5843 5846 5848 5850 5852 5854 5856 5858 5860 5861 5863 5865 5867 5869 5871 5873 5875 5877 5878 5880 5881
5619 5620 5620 5621 5623 5625 5626 5628 5630 5632 5634 5637 5640 5644 5648 5653 5658 5663 5667 5671 5675 5680 5685 5690 5695 5700 5705 5710 5715 5718 5722 5727 5732 5736 5741 5746 5751 5755 5759 5761 5764 5768 5772 5776 5779 5782 5785 5788 5791 5794 5798 5801 5804 5807 5810 5814 5817 5820 5823 5825 5827 5828 5830 5833 5836 5838 5840 5842 5844 5846 5848 5850 5853 5855 5857 5858 5860 5862 5864 5866 5868 5870 5872 5874 5875 5877 5878
5617 5617 5618 5619 5620 5622 5624 5625 5627 5629 5631 5634 5638 5641 5645 5650 5655 5660 5665 5669 5672 5676 5681 5686 5692 5697 5702 5707 5711 5714 5718 5723 5728 5732 5737 5742 5747 5751 5754 5757 5761 5765 5769 5772 5775 5777 5781 5784 5787 5790 5794 5797 5800 5803 5807 5810 5813 5816 5818 5820 5822 5824 5826 5829 5831 5833 5835 5838 5840 5842 5844 5847 5849 5851 5853 5855 5857 5859 5861 5863 5865 5867 5869 5871 5872 5873 5874
5616 5615 5616 5617 5618 5619 5621 5623 5625 5627 5629 5632 5636 5639 5643 5648 5653 5657 5662 5666 5669 5673 5678 5683 5688 5693 5698 5703 5708 5711 5715 5720 5725 5729 5733 5737 5742 5746 5750 5754 5757 5761 5765 5768 5771 5774 5777 5780 5784 5787 5790 5793 5797 5800 5804 5806 5809 5811 5813 5815 5816 5818 5821 5824 5826 5828 5829 5832 5834 5837 5840 5843 5845 5847 5848 5850 5852 5855 5858 5860 5862 5864 5866 5866 5867 5868 5870
5615 5614 5614 5615 5616 5617 5619 5621 5623 5625 5628 5631 5634 5638 5641 5646 5650 5655 5659 5663 5667 5671 5675 5680 5685 5690 5695 5700 5704 5708 5712 5716 5721 5723 5727 5732 5736 5740 5745 5749 5752 5756 5760 5763 5766 5770 5773 5777 5779 5782 5786 5789 5792 5796 5799 5802 5804 5806 5808 5810 5812 5815 5817 5819 5820 5821 5823 5826 5829 5832 5835 5838 5840 5841 5843 5846 5848 5852 5855 5857 5858 5859 5860 5861 5862 5863 5864
5614 5613 5613 5613 5614 5615 5617 5618 5621 5623 5626 5629 5633 5636 5640 5644 5648 5652 5656 5661 5665 5668 5672 5677 5681 5685 5690 5695 5699 5703 5707 5711 5714 5717 5721 5726 5731 5735 5740 5744 5747 5750 5755 5758 5761 5763 5768 5772 5775 5778 5780 5784 5788 5790 5793 5796 5799 5800 5803 5806 5809 5811 5814 5815 5815 5817 5820 5823 5826 5828 5830 5832 5835 5837 5840 5842 5845 5847 5849 5851 5852 5853 5854 5855 5856 5858 5859
5614 5613 5613 5612 5613 5614 5615 5617 5619 5622 5625 5628 5631 5634 5638 5642 5645 5649 5653 5657 5662 5665 5669 5674 5678 5681 5685 5690 5694 5698 5703 5707 5709 5711 5715 5721 5726 5730 5734 5738 5741 5745 5749 5752 5754 5755 5759 5764 5769 5772 5775 5778 5781 5784 5787 5790 5792 5795 5798 5802 5805 5807 5809 5811 5812 5815 5818 5821 5823 5824 5826 5828 5831 5833 5835 5837 5839 5841 5842 5844 5846 5847 5848 5850 5851 5853 5854
5614 5613 5612 5612 5612 5613 5614 5616 5618 5620 5624 5627 5629 5633 5636 5639 5643 5646 5650 5654 5659 5662 5666 5672 5675 5678 5681 5686 5690 5693 5698 5702 5705 5707 5709 5713 5719 5725 5728 5731 5736 5740 5743 5746 5748 5749 5751 5754 5759 5764 5769 5772 5774 5778 5781 5784 5787 5790 5794 5797 5800 5803 5805 5807 5809 5812 5815 5817 5818 5819 5821 5823 5825 5827 5829 5830 5832 5834 5836 5837 5839 5841 5843 5845 5846 5847 5848
5614 5613 5612 5612 5612 5612 5614 5616 5617 5619 5622 5625 5628 5631 5634 5638 5642 5645 5649 5652 5656 5659 5663 5668 5672 5674 5678 5681 5684 5687 5690 5693 5698 5701 5703 5704 5709 5716 5721 5725 5730 5734 5738 5741 5743 5745 5748 5750 5753 5757 5761 5765 5768 5772 5775 5778 5782 5785 5788 5792 5795 5798 5800 5802 5805 5808 5810 5811 5812 5814 5816 5818 5819 5821 5823 5824 5826 5828 5830 5832 5834 5836 5837 5839 5840 5841 5842
5614 5613 5612 5612 5612 5612 5613 5615 5617 5618 5621 5624 5627 5629 5632 5636 5640 5643 5646 5649 5653 5656 5659 5664 5667 5670 5673 5676 5679 5682 5685 5687 5691 5695 5697 5698 5700 5705 5711 5717 5722 5727 5732 5734 5736 5740 5744 5748 5751 5752 5754 5757 5761 5765 5769 5773 5777 5780 5784 5787 5789 5792 5795 5798 5800 5803 5805 5806 5807 5809 5810 5812 5814 5815 5817 5819 5821 5823 5825 5826 5828 5830 5831 5833 5834 5835 5836
5614 5613 5612 5612 5612 5612 5613 5614 5616 5618 5620 5622 5625 5627 5630 5633 5636 5639 5642 5646 5649 5652 5656 5659 5662 5665 5668 5671 5675 5679 5682 5684 5686 5689 5691 5693 5696 5698 5702 5706 5712 5718 5724 5728 5730 5734 5738 5742 5746 5749 5752 5754 5757 5760 5764 5767 5771 5775 5779 5782 5785 5787 5789 5791 5794 5797 5799 5802 5803 5804 5805 5807 5809 5810 5812 5814 5816 5818 5820 5821 5822 5824 5825 5827 5828 5829 5830
5614 5613 5612 5611 5611 5612 5612 5613 5615 5616 5618 5621 5623 5626 5628 5630 5633 5636 5639 5642 5646 5649 5652 5654 5658 5661 5664 5668 5672 5676 5678 5679 5682 5684 5686 5689 5692 5694 5696 5698 5703 5709 5716 5720 5724 5728 5732 5736 5740 5744 5747 5750 5752 5754 5757 5760 5765 5769 5773 5776 5779 5781 5783 5784 5786 5788 5791 5794 5797 5799 5801 5802 5803 5805 5807 5809 5811 5812 5814 5816 5817 5818 5820 5821 5822 5823 5824
5615 5613 5612 5611 5610 5611 5612 5613 5614 5615 5617 5619 5621 5624 5626 5628 5631 5633 5636 5639 5641 5644 5647 5651 5654 5658 5661 5664 5668 5671 5673 5675 5678 5680 5682 5685 5688 5690 5693 5695 5698 5704 5710 5714 5718 5721 5725 5729 5733 5736 5740 5742 5744 5746 5747 5751 5755 5760 5764 5767 5771 5774 5777 5779 5780 5782 5783 5786 5789 5793 5795 5797 5798 5799 5801 5803 5805 5807 5809 5810 5812 5813 5814 5815 5816 5818 5819
5615 5614 5612 5611 5610 5610 5611 5612 5613 5614 5615 5617 5619 5621 5623 5626 5628 5630 5633 5636 5638 5640 5644 5647 5650 5654 5657 5660 5664 5667 5670 5672 5674 5677 5679 5681 5683 5686 5688 5690 5693 5699 5704 5708 5712 5715 5719 5722 5726 5731 5735 5739 5741 5742 5743 5745 5749 5753 5757 5759 5762 5765 5769 5773 5776 5778 5779 5781 5784 5786 5788 5791 5793 5794 5796 5798 5800 5802 5803 5805 5806 5807 5808 5809 5811 5812 5813
5614 5613 5612 5611 5610 5610 5609 5610 5611 5612 5614 5615 5617 5619 5621 5623 5625 5627 5630 5632 5635 5637 5641 5644 5647 5650 5654 5657 5661 5664 5667 5669 5671 5674 5676 5678 5680 5682 5683 5685 5688 5693 5697 5702 5706 5710 5713 5717 5721 5725 5730 5733 5737 5740 5741 5743 5746 5749 5753 5755 5757 5759 5762 5766 5770 5772 5775 5777 5779 5780 5782 5785 5787 5788 5790 5792 5794 5796 5797 5799 5800 5801 5802 5804 5805 5806 5807
5612 5612 5611 5611 5610 5610 5609 5609 5609 5611 5612 5613 5615 5617 5618 5620 5622 5624 5627 5629 5632 5635 5638 5641 5644 5647 5650 5654 5657 5660 5663 5666 5668 5670 5673 5675 5677 5678 5680 5682 5685 5688 5692 5696 5700 5704 5707 5712 5716 5720 5723 5727 5731 5735 5737 5740 5743 5746 5749 5751 5754 5756 5758 5760 5763 5766 5768 5771 5773 5775 5777 5779 5780 5782 5784 5786 5788 5790 5792 5794 5795 5796 5797 5798 5799 5800 5801
5610 5610 5610 5610 5610 5609 5609 5608 5608 5609 5610 5612 5613 5615 5616 5618 5620 5622 5624 5626 5629 5632 5635 5638 5640 5643 5647 5650 5654 5657 5660 5662 5665 5667 5669 5672 5674 5676 5678 5679 5681 5684 5687 5691 5695 5698 5702 5706 5710 5713 5717 5721 5725 5729 5732 5735 5738 5740 5743 5745 5749 5751 5753 5755 5757 5759 5761 5764 5767 5769 5771 5773 5775 5776 5778 5780 5782 5784 5786 5788 5789 5790 5791 5792 5793 5794 5795
5608 5608 5608 5608 5608 5608 5608 5608 5608 5608 5609 5610 5611 5613 5614 5616 5618 5619 5621 5623 5626 5629 5631 5634 5637 5640 5643 5646 5650 5653 5656 5658 5662 5664 5667 5669 5671 5674 5676 5677 5679 5681 5684 5687 5691 5694 5697 5701 5704 5707 5710 5714 5718 5722 5726 5728 5731 5734 5736 5739 5742 5745 5747 5748 5750 5753 5756 5758 5761 5763 5765 5767 5769 5770 5772 5774 5776 5778 5780 5781 5782 5784 5785 5786 5786 5787 5788
5606 5606 5606 5606 5606 5607 5607 5607 5607 5607 5607 5608 5609 5611 5612 5614 5616 5617 5619 5621 5623 5625 5628 5630 5633 5636 5639 5642 5645 5649 5652 5655 5658 5661 5663 5666 5668 5671 5673 5675 5677 5679 5680 5683 5686 5689 5692 5695 5698 5701 5705 5708 5711 5714 5717 5721 5724 5727 5730 5733 5735 5738 5740 5741 5744 5747 5750 5752 5755 5757 5759 5761 5762 5764 5766 5767 5770 5771 5773 5774 5775 5777 5778 5779 5779 5780 5781
5605 5604 5604 5604 5604 5604 5605 5605 5606 5606 5606 5607 5607 5608 5610 5611 5613 5615 5617 5619 5621 5623 5625 5627 5630 5632 5635 5638 5641 5644 5647 5650 5653 5656 5659 5662 5664 5667 5669 5672 5674 5676 5677 5679 5681 5684 5688 5691 5693 5696 5699 5702 5705 5708 5710 5713 5716 5719 5722 5724 5727 5730 5733 5735 5737 5740 5743 5746 5748 5750 5752 5754 5756 5757 5759 5761 5762 5764 5765 5766 5768 5769 5771 5772 5772 5773 5774
5603 5602 5602 5601 5601 5602 5602 5603 5604 5604 5605 5605 5606 5607 5608 5609 5611 5612 5614 5616 5618 5620 5622 5625 5627 5630 5632 5635 5638 5641 5643 5646 5649 5652 5655 5658 5660 5662 5665 5668 5670 5672 5674 5675 5677 5680 5683 5686 5689 5691 5694 5696 5699 5702 5705 5707 5709 5711 5715 5718 5720 5723 5725 5727 5730 5732 5735 5737 5739 5741 5744 5746 5747 5748 5750 5752 5754 5756 5757 5758 5760 5761 5762 5764 5765 5766 5766
5600 5600 5599 5599 5599 5599 5599 5600 5601 5602 5603 5604 5604 5605 5606 5607 5608 5610 5612 5613 5615 5617 5619 5622 5624 5627 5629 5632 5634 5637 5640 5642 5645 5647 5650 5653 5656 5658 5661 5663 5665 5668 5670 5671 5673 5675 5678 5681 5683 5686 5688 5691 5693 5696 5698 5700 5702 5705 5708 5712 5714 5716 5718 5719 5721 5723 5725 5727 5729 5731 5733 5735 5736 5737 5739 5742 5745 5747 5749 5750 5751 5753 5754 5756 5757 5758 5758
5598 5597 5597 5597 5597 5597 5597 5597 5598 5599 5600 5601 5602 5603 5604 5605 5606 5607 5609 5610 5612 5614 5616 5618 5620 5623 5625 5628 5631 5633 5636 5638 5640 5643 5645 5648 5651 5654 5656 5659 5661 5663 5665 5667 5669 5671 5674 5676 5678 5681 5683 5685 5688 5690 5692 5694 5696 5699 5701 5704 5707 5709 5711 5713 5714 5716 5718 5720 5722 5723 5725 5726 5728 5729 5731 5733 5736 5738 5741 5742 5743 5745 5746 5748 5749 5750 5750
5595 5595 5594 5594 5595 5595 5595 5595 5596 5597 5597 5598 5600 5601 5602 5603 5603 5605 5606 5607 5609 5611 5613 5615 5617 5619 5621 5624 5626 5629 5631 5634 5636 5638 5641 5644 5647 5650 5652 5654 5656 5659 5661 5663 5665 5667 5669 5671 5673 5676 5678 5681 5683 5685 5687 5689 5691 5693 5696 5698 5700 5702 5704 5706 5708 5710 5712 5713 5715 5716 5718 5720 5722 5724 5725 5727 5728 5730 5732 5734 5735 5736 5738 5740 5740 5741 5741
5592 5592 5592 5592 5592 5592 5593 5593 5593 5594 5595 5595 5596 5597 5599 5600 5601 5602 5603 5605 5606 5608 5610 5611 5613 5615 5617 5620 5622 5624 5627 5629 5632 5634 5637 5640 5642 5645 5647 5650 5652 5654 5656 5658 5660 5662 5664 5666 5668 5671 5673 5675 5678 5680 5682 5684 5686 5688 5690 5692 5694 5696 5698 5699 5701 5703 5705 5707 5708 5710 5711 5713 5715 5717 5718 5720 5721 5722 5724 5725 5726 5728 5731 5732 5732 5732 5732
5590 5589 5589 5589 5589 5590 5590 5590 5591 5591 5592 5593 5593 5594 5596 5597 5599 5600 5601 5602 5603 5605 5606 5608 5610 5612 5614 5616 5618 5620 5623 5625 5628 5630 5633 5635 5637 5640 5642 5645 5647 5649 5651 5653 5655 5657 5660 5662 5664 5666 5668 5670 5672 5674 5676 5678 5680 5682 5683 5685 5687 5689 5691 5693 5694 5696 5698 5700 5702 5703 5705 5707 5708 5709 5711 5713 5714 5715 5716 5717 5718 5720 5722 5723 5724 5724 5723
5588 5587 5587 5587 5587 5587 5587 5588 5588 5589 5589 5590 5591 5592 5593 5595 5596 5597 5598 5600 5601 5602 5603 5605 5607 5608 5610 5612 5614 5616 5618 5621 5623 5626 5628 5630 5632 5635 5637 5639 5642 5644 5646 5648 5651 5653 5654 5656 5658 5661 5663 5664 5666 5668 5670 5672 5673 5675 5677 5678 5680 5682 5684 5686 5688 5690 5691 5693 5695 5697 5698 5700 5701 5703 5704 5705 5706 5708 5709 5710 5710 5711 5712 5714 5715 5716 5717
5586 5585 5585 5585 5585 5585 5585 5585 5586 5586 5587 5587 5588 5589 5590 5592 5593 5594 5595 5597 5598 5599 5601 5602 5603 5605 5607 5609 5611 5613 5615 5617 5619 5621 5624 5626 5628 5630 5632 5635 5637 5639 5641 5643 5645 5647 5649 5651 5653 5655 5657 5659 5661 5662 5664 5665 5667 5668 5670 5671 5673 5675 5677 5679 5681 5683 5684 5686 5687 5689 5691 5693 5695 5696 5697 5698 5700 5701 5702 5703 5704 5704 5705 5706 5707 5708 5709